Location: Foulognes
(49.1413°N, 0.8183°W)
Time: 12:54:36
(UTC+00:00)

Cosmos 1703 - Pass Details

Date: 21 October 2019
Orbit: 523 x 542 km, 82.5° (Epoch: 21 November)

Event Time Altitude Azimuth Distance (km) Brightness Sun altitude
Rises 18:10:48 0° 347° (NNW) 2,698 7.0 -11.9°
Reaches altitude 10° 18:12:59 10° 344° (NNW) 1,798 6.1 -12.2°
Maximum altitude 18:16:52 60° 264° (W) 613 3.9 -12.9°
Drops below altitude 10° 18:20:42 10° 184° (S) 1,771 6.0 -13.5°
Sets 18:22:50 0° 181° (S) 2,653 6.8 -13.8°
